TimeCST,TemperatureF,Dew PointF,Humidity,Sea Level PressureIn,VisibilityMPH,Wind Direction,Wind SpeedMPH,Gust SpeedMPH,PrecipitationIn,Events,Conditions,WindDirDegrees,DateUTC
12:14 AM,30.2,21.2,69,30.07,10.0,NNW,5.8,-,N/A,,Overcast,340,2013-02-28 06:14:00
12:35 AM,30.2,21.2,69,30.07,10.0,North,3.5,-,N/A,,Overcast,350,2013-02-28 06:35:00
12:55 AM,30.2,21.2,69,30.07,10.0,North,3.5,-,N/A,,Overcast,10,2013-02-28 06:55:00
1:14 AM,30.2,21.2,69,30.08,10.0,NNW,3.5,-,N/A,,Overcast,340,2013-02-28 07:14:00
1:35 AM,30.2,19.4,64,30.08,10.0,North,3.5,-,N/A,,Overcast,10,2013-02-28 07:35:00
1:55 AM,30.2,19.4,64,30.08,10.0,Calm,Calm,-,N/A,,Overcast,0,2013-02-28 07:55:00
2:14 AM,30.2,19.4,64,30.09,10.0,North,3.5,-,N/A,,Overcast,350,2013-02-28 08:14:00
2:35 AM,30.2,19.4,64,30.09,10.0,North,3.5,-,N/A,,Overcast,350,2013-02-28 08:35:00
2:55 AM,30.2,19.4,64,30.09,10.0,North,3.5,-,N/A,,Overcast,360,2013-02-28 08:55:00
3:14 AM,30.2,19.4,64,30.09,10.0,North,3.5,-,N/A,,Overcast,10,2013-02-28 09:14:00
3:55 AM,28.4,19.4,69,30.10,10.0,North,3.5,-,N/A,,Overcast,350,2013-02-28 09:55:00
4:35 AM,28.4,19.4,69,30.11,10.0,Calm,Calm,-,N/A,,Overcast,0,2013-02-28 10:35:00
4:54 AM,28.4,19.4,69,30.12,10.0,NNE,3.5,-,N/A,,Overcast,30,2013-02-28 10:54:00
5:15 AM,28.4,19.4,69,30.12,10.0,Calm,Calm,-,N/A,,Overcast,0,2013-02-28 11:15:00
5:35 AM,28.4,19.4,69,30.13,10.0,North,3.5,-,N/A,,Overcast,350,2013-02-28 11:35:00
5:54 AM,28.4,19.4,69,30.13,10.0,NNW,5.8,-,N/A,,Overcast,340,2013-02-28 11:54:00
6:15 AM,28.4,19.4,69,30.14,10.0,North,4.6,-,N/A,,Overcast,360,2013-02-28 12:15:00
6:35 AM,28.4,19.4,69,30.14,10.0,NNE,6.9,-,N/A,,Overcast,30,2013-02-28 12:35:00
6:54 AM,28.4,19.4,69,30.14,10.0,North,4.6,-,N/A,,Overcast,360,2013-02-28 12:54:00
7:15 AM,28.4,19.4,69,30.15,10.0,Calm,Calm,-,N/A,,Overcast,0,2013-02-28 13:15:00
7:35 AM,28.4,17.6,64,30.15,10.0,NE,8.1,-,N/A,,Overcast,40,2013-02-28 13:35:00
8:14 AM,28.4,19.4,69,30.16,10.0,North,3.5,-,N/A,,Overcast,350,2013-02-28 14:14:00
8:35 AM,28.4,19.4,69,30.16,10.0,North,4.6,-,N/A,,Overcast,360,2013-02-28 14:35:00
8:55 AM,28.4,19.4,69,30.16,10.0,North,3.5,-,N/A,,Overcast,350,2013-02-28 14:55:00
9:14 AM,28.4,19.4,69,30.16,10.0,North,3.5,-,N/A,,Overcast,350,2013-02-28 15:14:00
9:55 AM,28.4,17.6,64,30.17,10.0,NNW,4.6,-,N/A,,Overcast,340,2013-02-28 15:55:00
10:14 AM,28.4,17.6,64,30.18,10.0,NE,5.8,-,N/A,,Mostly Cloudy,50,2013-02-28 16:14:00
10:35 AM,28.4,17.6,64,30.18,10.0,North,4.6,-,N/A,,Mostly Cloudy,360,2013-02-28 16:35:00
10:55 AM,28.4,17.6,64,30.18,10.0,NE,6.9,-,N/A,,Overcast,50,2013-02-28 16:55:00
11:14 AM,28.4,17.6,64,30.19,10.0,NNE,4.6,-,N/A,,Mostly Cloudy,30,2013-02-28 17:14:00
11:35 AM,28.4,17.6,64,30.19,10.0,North,3.5,-,N/A,,Mostly Cloudy,10,2013-02-28 17:35:00
11:55 AM,28.4,17.6,64,30.19,10.0,NE,5.8,-,N/A,,Overcast,50,2013-02-28 17:55:00
12:14 PM,28.4,17.6,64,30.19,10.0,ENE,5.8,-,N/A,,Mostly Cloudy,60,2013-02-28 18:14:00
12:35 PM,28.4,17.6,64,30.18,10.0,North,3.5,-,N/A,,Overcast,10,2013-02-28 18:35:00
12:55 PM,28.4,17.6,64,30.19,10.0,NNW,3.5,-,N/A,,Overcast,340,2013-02-28 18:55:00
1:14 PM,28.4,17.6,64,30.18,10.0,NNW,6.9,-,N/A,,Overcast,340,2013-02-28 19:14:00
1:35 PM,28.4,17.6,64,30.19,10.0,North,4.6,-,N/A,,Mostly Cloudy,10,2013-02-28 19:35:00
1:55 PM,28.4,17.6,64,30.18,10.0,North,5.8,-,N/A,,Mostly Cloudy,360,2013-02-28 19:55:00
2:14 PM,28.4,17.6,64,30.19,10.0,NNE,3.5,-,N/A,,Overcast,20,2013-02-28 20:14:00
2:35 PM,28.4,17.6,64,30.18,10.0,NE,4.6,-,N/A,,Overcast,50,2013-02-28 20:35:00
2:55 PM,28.4,15.8,59,30.19,10.0,NNE,3.5,-,N/A,,Overcast,30,2013-02-28 20:55:00
3:14 PM,28.4,15.8,59,30.19,10.0,NE,8.1,-,N/A,,Overcast,40,2013-02-28 21:14:00
3:35 PM,28.4,15.8,59,30.19,10.0,NE,5.8,-,N/A,,Overcast,40,2013-02-28 21:35:00
3:55 PM,28.4,15.8,59,30.19,10.0,NNE,4.6,-,N/A,,Overcast,20,2013-02-28 21:55:00
4:14 PM,28.4,15.8,59,30.19,10.0,NNE,3.5,-,N/A,,Overcast,30,2013-02-28 22:14:00
4:35 PM,28.4,17.6,64,30.19,10.0,NNE,4.6,-,N/A,,Overcast,30,2013-02-28 22:35:00
4:55 PM,28.4,15.8,59,30.20,10.0,North,3.5,-,N/A,,Mostly Cloudy,350,2013-02-28 22:55:00
5:14 PM,28.4,15.8,59,30.20,10.0,North,3.5,-,N/A,,Scattered Clouds,350,2013-02-28 23:14:00
5:35 PM,26.6,15.8,64,30.20,10.0,Calm,Calm,-,N/A,,Clear,0,2013-02-28 23:35:00
5:55 PM,26.6,14.0,59,30.21,10.0,Calm,Calm,-,N/A,,Clear,0,2013-02-28 23:55:00
6:15 PM,26.6,15.8,64,30.21,10.0,Calm,Calm,-,N/A,,Clear,0,2013-03-01 00:15:00
6:34 PM,24.8,14.0,64,30.21,10.0,Calm,Calm,-,N/A,,Clear,0,2013-03-01 00:34:00
6:55 PM,23.0,14.0,68,30.22,10.0,Calm,Calm,-,N/A,,Clear,0,2013-03-01 00:55:00
7:15 PM,23.0,14.0,68,30.22,10.0,Calm,Calm,-,N/A,,Clear,0,2013-03-01 01:15:00
7:34 PM,21.2,14.0,74,30.22,10.0,Calm,Calm,-,N/A,,Clear,0,2013-03-01 01:34:00
7:55 PM,19.4,12.2,74,30.22,10.0,Calm,Calm,-,N/A,,Clear,0,2013-03-01 01:55:00
8:15 PM,17.6,12.2,79,30.22,10.0,Calm,Calm,-,N/A,,Clear,0,2013-03-01 02:15:00
8:34 PM,19.4,12.2,74,30.22,10.0,Calm,Calm,-,N/A,,Clear,0,2013-03-01 02:34:00
8:55 PM,17.6,10.4,73,30.22,10.0,Calm,Calm,-,N/A,,Clear,0,2013-03-01 02:55:00
9:15 PM,17.6,12.2,79,30.22,10.0,Calm,Calm,-,N/A,,Clear,0,2013-03-01 03:15:00
9:34 PM,21.2,14.0,74,30.23,10.0,Calm,Calm,-,N/A,,Clear,0,2013-03-01 03:34:00
9:55 PM,19.4,14.0,80,30.23,10.0,Calm,Calm,-,N/A,,Clear,0,2013-03-01 03:55:00
10:15 PM,15.8,10.4,79,30.24,10.0,Calm,Calm,-,N/A,,Clear,0,2013-03-01 04:15:00
10:34 PM,21.2,14.0,74,30.24,10.0,ENE,3.5,-,N/A,,Clear,60,2013-03-01 04:34:00
10:55 PM,19.4,12.2,74,30.24,10.0,Calm,Calm,-,N/A,,Clear,0,2013-03-01 04:55:00
11:15 PM,21.2,14.0,74,30.24,10.0,Calm,Calm,-,N/A,,Clear,0,2013-03-01 05:15:00
11:34 PM,19.4,12.2,74,30.25,10.0,Calm,Calm,-,N/A,,Clear,0,2013-03-01 05:34:00